{"data":{"norad_id":57496,"intl_designator":"2023-113B","name":"STARLINK-30145","alt_names":[],"object_type":"PAYLOAD","status":"ACTIVE","operator":null,"country":"US","launch_date":"2023-08-07","launch_site_code":"AFETR","launch_vehicle":null,"mission":null,"orbit_class":"UNKNOWN","rcs_meters":null,"size_class":null,"mass_kg":null,"dimensions":null,"purposes":["comms"],"wikipedia_slug":null,"has_3d_model":false,"image_url":null,"decayed_at":null,"tle_current":{"epoch":"2026-05-24T18:58:15.615264Z","epoch_age_seconds":103690,"freshness":"FRESH","line1":"1 57496U 23113B   26144.79045851  .00003391  00000+0  13274-3 0  9992","line2":"2 57496  43.0026 306.3063 0001483 258.5774 101.4911 15.27569541155208","mean_motion":15.27569541,"eccentricity":0.0001483,"inclination_deg":43.0026,"raan_deg":306.3063,"arg_perigee_deg":258.5774,"mean_anomaly_deg":101.4911,"bstar":0.00013274,"rev_number":15520,"period_min":94.267394141502,"perigee_km":482.06289568442,"apogee_km":484.09793276948,"semimajor_km":6861.2174142269,"source":"CELESTRAK","updated_at":"2026-05-25T13:38:18.326989Z"}}}